This is the latest recevied weather packets stored in our database for station/object KB1JL-13. If no packets are shown the sender has not sent any weather packets the latest 10 day(s).
| Time | Temp. | Humidity | Pressure | Rain* | Wind** | Luminosity | Snow |
|---|---|---|---|---|---|---|---|
| 1778186879 | 16.67° C | 42% | 1018.9 hPa | 0 mm | - | 414 W/m² | - |
| 1778186577 | 16.67° C | 42% | 1018.5 hPa | 0 mm | - | 425 W/m² | - |
| 1778186274 | 16.67° C | 43% | 1018.5 hPa | 0 mm | - | 436 W/m² | - |
| 1778185972 | 17.22° C | 40% | 1018.5 hPa | 0 mm | - | 473 W/m² | - |
| 1778185668 | 16.67° C | 42% | 1018.9 hPa | 0 mm | - | 524 W/m² | - |
| 1778185364 | 17.22° C | 41% | 1018.9 hPa | 0 mm | - | 543 W/m² | - |
| 1778185059 | 16.67° C | 41% | 1018.9 hPa | 0 mm | - | 560 W/m² | - |
| 1778184756 | 17.78° C | 46% | 1018.9 hPa | 0 mm | - | 553 W/m² | - |
| 1778184452 | 17.22° C | 45% | 1018.5 hPa | 0 mm | - | 542 W/m² | - |
| 1778184148 | 17.22° C | 46% | 1018.9 hPa | 0 mm | - | 562 W/m² | - |
| 1778183844 | 17.22° C | 41% | 1018.9 hPa | 0 mm | - | 579 W/m² | - |
| 1778183536 | 16.67° C | 41% | 1018.9 hPa | 0 mm | - | 617 W/m² | - |
| 1778183233 | 16.11° C | 40% | 1019.2 hPa | 0 mm | - | 565 W/m² | - |
| 1778182929 | 16.67° C | 42% | 1019.2 hPa | 0 mm | - | 533 W/m² | - |
| 1778182626 | 16.67° C | 43% | 1018.9 hPa | 0 mm | - | 596 W/m² | - |
| 1778182323 | 16.67° C | 41% | 1019.2 hPa | 0 mm | - | 654 W/m² | - |
| 1778182019 | 16.67° C | 42% | 1019.2 hPa | 0 mm | - | 595 W/m² | - |
| 1778181716 | 16.67° C | 43% | 1019.2 hPa | 0 mm | - | 555 W/m² | - |
| 1778181411 | 17.22° C | 42% | 1019.5 hPa | 0 mm | - | 608 W/m² | - |
| 1778181109 | 17.22° C | 43% | 1019.5 hPa | 0 mm | - | 605 W/m² | - |
| 1778180806 | 17.22° C | 40% | 1019.2 hPa | 0 mm | - | 588 W/m² | - |
| 1778180505 | 16.67° C | 43% | 1019.5 hPa | 0 mm | - | 583 W/m² | - |
| 1778180203 | 17.22° C | 46% | 1019.5 hPa | 0 mm | - | 619 W/m² | - |
| 1778179899 | 16.67° C | 40% | 1019.5 hPa | 0 mm | - | 588 W/m² | - |
| 1778179597 | 17.22° C | 41% | 1019.5 hPa | 0 mm | - | 502 W/m² | - |
* Rain latest hour (hover to see other rain measurements)
** Current wind speed in m/s (hover to see current wind gust speed)